www.pogodaiklimat.ru

Погода и климат >> Архив погоды >> Боливия >> Роборе


ПОГОДА в Роборе

  • Прогноз погоды в Роборе
  • Монитор погоды в Роборе

АРХИВ ПОГОДЫ в Роборе

Время (UTC), дата Ветер
(напр.,м/с)
 
Видим.   Явления Облачность Т
(С)
Тd
(С)
f
(%)
Тe
(С)
Тes
(С)
Комфортность P
(гПа)
Po
(гПа)
Тmin
(С)
Tmax
(С)
R
(мм)
R24
(мм)
S
(см)
12 18.08 С 8 5000 м дым ясно +28.0 +18.7 57 +33 +34 очень
душно
1015.1 982.3 +23.6
15 18.08 С 9 5000 м дым ясно +32.2 +16.4 39 +35 +37 очень
душно
1016.7 982.7
18 18.08 СЗ 8 5000 м дым 1/1 600 м
[Cu hum]
+34.8 +18.0 37 +39 +41 очень
душно
1014.6 981.6
21 18.08 СЗ 8 5000 м дым ясно +34.0 +18.4 40 +39 +39 очень
душно
1012.7 980.5 +36.3
12 19.08 штиль 0 6000 м дым 4/0
[Ci fib]
+22.0 +17.5 76 +27 +31 душно 1021.5 988.1 +19.5
15 19.08 штиль 0 8000 м дым ясно +25.0 +17.6 64 +29 +50 душно 1021.6 989.0
18 19.08 штиль 0 8000 м дым 1/1 600 м
[Cu hum]
+28.0 +16.2 49 +31 +46 душно 1018.9 986.8
21 19.08 Ю 2 8000 м дым ясно +28.0 +16.2 49 +31 +32 душно 1016.5 984.8 +28.8
12 20.08 штиль 0 8000 м дым ясно +15.3 +9.5 68 +15 +20 1023.3 989.8 +10.1
15 20.08 Ю 3 8000 м дым 5/0 2000 м
[Ac trans]
+24.1 +8.7 37 +25 +34 комфорт 1024.4 991.4
18 20.08 Ю 2 7000 м дым ясно +27.5 +14.5 45 +30 +42 жарко 1020.0 988.6
21 20.08 Ю 2 5000 м дым ясно +29.0 +14.7 42 +31 +32 жарко 1018.6 987.7 +30.6
12 21.08 штиль 0 5000 м дым ясно +15.0 +11.6 80 +15 +20 1022.4 991.1 +11.0
15 21.08 штиль 0 5000 м дым ясно +25.5 +15.7 55 +29 +50 душно 1023.4 991.4
18 21.08 штиль 0 5000 м дым ясно +30.0 +16.8 45 +34 +50 очень
душно
1019.5 988.5
21 21.08 штиль 0 4000 м дым ясно +30.0 +16.8 45 +34 +35 очень
душно
1017.8 986.2 +32.8
12 22.08 штиль 0 5000 м дым ясно +17.4 +11.7 69 +17 +22 1018.0 988.6 +13.1
15 22.08 штиль 0 5000 м дым ясно +33.0 +17.0 38 +36 +58 опасность
солнечного
удара
1018.5 987.9
18 22.08 СЗ 2 6000 м дым 3/3 600 м
[Cu hum]
+36.0 +18.3 35 +40 +48 очень
душно
1017.0 985.9
21 22.08 штиль 0 6000 м дым 3/3 600 м
[Cu hum]
+34.0 +18.4 40 +39 +39 очень
душно
1016.6 985.9 +37.3
12 23.08 штиль 0 6000 м дым ясно +20.0 +17.0 83 +23 +28 комфорт 1024.8 992.5 +17.7
15 23.08 штиль 0 6000 м дым ясно +25.0 +15.9 57 +28 +50 жарко 1023.4 992.0
18 23.08 штиль 0 6000 м дым ясно +30.6 +18.3 48 +35 +52 опасность
солнечного
удара
1019.9 989.0
21 23.08 штиль 0 6000 м дым ясно +31.6 +19.5 49 +37 +38 очень
душно
1016.9 986.8 +34.2
12 24.08 штиль 0 6000 м дым ясно +18.0 +14.9 82 +18 +23 1018.6 986.3 +12.9
15 24.08 штиль 0 6000 м дым ясно +30.6 +18.3 48 +35 +57 опасность
солнечного
удара
1018.2 985.6
18 24.08 С 3 6000 м дым ясно +36.4 +17.9 34 +40 +50 очень
душно
1014.3 981.8
21 24.08 С 2 7000 м дым ясно +36.3 +17.9 34 +40 +41 очень
душно
1012.2 980.2 +38.1

 

Местоположение метеостанции Роборе (Боливия): широта -18.31 долгота -59.76 высота над уровнем моря 276 м.

В архиве по умолчанию представлена погода в Роборе за последнюю неделю. Архивные данные за месяц целиком и за предыдущие месяцы, начиная с января 2011 года, Вы можете получить, выбрав интересующий диапазон дат из раскрывающегося списка и нажав кнопку "Ввод!".


*Определитесь, кто Вы:
робот инопланетянин человек

Внимание! Время в таблицах - всемирное. Для получения местного времени необходимо прибавить поправку, которая равна -4 ч.

Смотрите также архив погоды в соседних городах и на ближайших метеорологических станциях:

Погода в Сан Хосе де Чикитосе (Боливия) (117 км)
Погода в Пуэрто-Суаресе (Боливия) (219 км)
Погода в Корумбе (Мату-Гросу-ду-Сул, Бразилия) (237 км)
Погода в Сан-Игнасио (Боливия) (250 км)
Погода в Сан-Матиасе (Боливия) (265 км)
Погода в Касерисе (Мату-Гросу, Бразилия) (332 км)
Погода в Касересе (Мату-Гросу, Бразилия) (335 км)
Погода в Хумириме (Мату-Гросу-ду-Сул, Бразилия) (339 км)
Погода в Консепсьоне (Боливия) (340 км)
Погода в Понтис-и-Ласерде (Мату-Гросу, Бразилия) (343 км)

Пояснения к столбцам:

Ветер - указаны скорость ветра в м/с - средняя за 10 мин, порывы в срок и между сроками (в фигурных скобках) и направление, откуда дует ветер: С - северный, СВ - северо-восточный, В - восточный, ЮВ - юго-восточный, Ю - южный, ЮЗ - юго-западный, З - западный, СЗ - северо-западный.
Видимость - горизонтальная дальность видимости в метрах или километрах. При видимости от 1 до 10 км при отсутствии осадков обычно наблюдается дымка, при ухудшении видимости до 1 км и менее - туман. В сухую погоду видимость может ухудшаться дымом, пылью или мглою.
Явления - указаны атмосферные явления, наблюдавшиеся в срок или в последний час перед сроком; фигурными скобками обозначены явления, наблюдавшиеся между сроками (за 1-3 часа до срока); квадратными скобками обозначены град или гололедные отложения с указанием их диаметра в мм.
Облачность - указаны через наклонную черту общая и нижняя облачность в баллах и высота нижней границы облаков в метрах; квадратными скобками обозначены формы облаков: Ci - перистые, Cs - перисто-слоистые, Cc - перисто-кучевые, Ac - высококучевые, As - высокослоистые, Sc - слоисто-кучевые, Ns - слоисто-дождевые, Cu - кучевые, Cb - кучево-дождевые. Подробнее классификацию облаков см. в Атласе облаков (PDF).
T - Температура воздуха - температура, измеренная на высоте 2 м над землей.
Td - Температура точки росы - температура, при понижении до которой содержащийся в воздухе водяной пар достигнет насыщения.
f - Относительная влажность воздуха - влажноcть воздуха, измеренная на высоте 2 м над землей.
Te - Эффективная температура - температура, которую ощущает одетый по сезону человек в тени. Характеристика душности погоды. При расчете учитывается влияние влажности воздуха и скорости ветра на теплоощущения человека.
Tes - Эффективная температура на солнце - температура, которую ощущает человек, с поправкой на солнечный нагрев. Характеристика знойности погоды. Зависит от высоты солнца над горизонтом, облачности и скорости ветра. Ночью, в пасмурную погоду, а также при ветре 12 м/с и более поправка равна нулю.
P - Атмосферное давление - приведенное к уровню моря атмосферное давление.
Po - Атмосферное давление - измеренное на уровне метеостанции атмосферное давление.
Tmin - Минимальная температура - минимум температуры воздуха на высоте 2 м над землей.
Tmax - Максимальная температура - максимум температуры воздуха на высоте 2 м над землей.
R - Количество осадков - Количество выпавших осадков за период времени, мм. При наведении курсора мыши на число - период времени, за который выпало указанное количество осадков.
R24 - Количество осадков - Количество выпавших осадков за 24 часа, мм.
S - Снежный покров - Высота снежного покрова, см. При наведении курсора мыши на число - состояние снежного покрова и степень покрытия местности в баллах.